XM-5

Last updated on Tue Oct 08 2024 00:02:38 GMT+0000 (Coordinated Universal Time)

1 37185U 10053A 24281.19979882 -.00000012 00000+0 00000+0 0 9995 2 37185 0.0364 85.9304 0000586 341.0294 266.1491 1.00270194 51289
UTC large
Height (km)
Speed (km/s)
/
Latitude / Longitude
Inclination (degrees)
Orbital Period (minutes)
Azimuth
Elevation
Range (km)
Doppler Factor

Next 0 passes for location: London (51.5072 / 0.1276)

Sorry there are no passes over London.